Time,TemperatureF,DewpointF,PressureIn,WindDirection,WindDirectionDegrees,WindSpeedMPH,WindSpeedGustMPH,Humidity,HourlyPrecipIn,Conditions,Clouds,dailyrainin,SoftwareType,DateUTC
2013-07-02 01:00:00,65.0,-99.9,-100.00,North,-999,-999.0,-999.0,-999,-99.99,,,-99.99,,2013-07-02 08:00:00,
2013-07-02 01:53:00,65.0,-99.9,-100.00,North,-999,-999.0,-999.0,-999,-99.99,,,-99.99,,2013-07-02 08:53:00,
2013-07-02 02:00:00,64.0,-99.9,-100.00,North,-999,-999.0,-999.0,-999,-99.99,,,-99.99,,2013-07-02 09:00:00,
2013-07-02 03:00:00,65.0,-99.9,-100.00,North,-999,-999.0,-999.0,-999,-99.99,,,0.02,,2013-07-02 10:00:00,
2013-07-02 03:52:00,65.0,-99.9,-100.00,North,-999,-999.0,-999.0,-999,-99.99,,,0.02,,2013-07-02 10:52:00,
2013-07-02 04:00:00,65.0,-99.9,-100.00,North,-999,-999.0,-999.0,-999,-99.99,,,0.01,,2013-07-02 11:00:00,
2013-07-02 04:52:00,65.0,-99.9,-100.00,North,-999,-999.0,-999.0,-999,-99.99,,,0.01,,2013-07-02 11:52:00,
2013-07-02 05:00:00,67.0,-99.9,-100.00,North,-999,-999.0,-999.0,-999,-99.99,,,0.01,,2013-07-02 12:00:00,
2013-07-02 05:52:00,67.0,-99.9,-100.00,North,-999,-999.0,-999.0,-999,-99.99,,,0.01,,2013-07-02 12:52:00,
2013-07-02 06:00:00,61.0,-99.9,-100.00,North,-999,-999.0,-999.0,-999,-99.99,,,0.01,,2013-07-02 13:00:00,
2013-07-02 07:00:00,65.0,-99.9,-100.00,North,-999,-999.0,-999.0,-999,-99.99,,,0.01,,2013-07-02 14:00:00,
2013-07-02 07:53:00,65.0,-99.9,-100.00,North,-999,-999.0,-999.0,-999,-99.99,,,0.01,,2013-07-02 14:53:00,
2013-07-02 08:00:00,66.0,-99.9,-100.00,North,-999,-999.0,-999.0,-999,-99.99,,,-99.99,,2013-07-02 15:00:00,
2013-07-02 09:00:00,70.0,-99.9,-100.00,North,-999,-999.0,-999.0,-999,-99.99,,,-99.99,,2013-07-02 16:00:00,
2013-07-02 10:00:00,71.0,-99.9,-100.00,North,-999,-999.0,-999.0,-999,-99.99,,,0.83,,2013-07-02 17:00:00,
2013-07-02 11:00:00,73.0,-99.9,-100.00,North,-999,-999.0,-999.0,-999,-99.99,,,0.83,,2013-07-02 18:00:00,
2013-07-02 12:00:00,75.0,-99.9,-100.00,North,-999,-999.0,-999.0,-999,-99.99,,,-99.99,,2013-07-02 19:00:00,
2013-07-02 14:00:00,68.0,-99.9,-100.00,North,-999,-999.0,-999.0,-999,-99.99,,,-99.99,,2013-07-02 21:00:00,
2013-07-02 14:52:00,68.0,-99.9,-100.00,North,-999,-999.0,-999.0,-999,-99.99,,,-99.99,,2013-07-02 21:52:00,
2013-07-02 15:00:00,66.0,-99.9,-100.00,North,-999,-999.0,-999.0,-999,-99.99,,,-99.99,,2013-07-02 22:00:00,
2013-07-02 15:53:00,66.0,-99.9,-100.00,North,-999,-999.0,-999.0,-999,-99.99,,,-99.99,,2013-07-02 22:53:00,
2013-07-02 16:00:00,61.0,-99.9,-100.00,North,-999,-999.0,-999.0,-999,-99.99,,,0.84,,2013-07-02 23:00:00,
2013-07-02 16:52:00,61.0,-99.9,-100.00,North,-999,-999.0,-999.0,-999,-99.99,,,0.84,,2013-07-02 23:52:00,
2013-07-02 17:00:00,61.0,-99.9,-100.00,North,-999,-999.0,-999.0,-999,-99.99,,,0.82,,2013-07-03 00:00:00,
2013-07-02 18:00:00,62.0,-99.9,-100.00,North,-999,-999.0,-999.0,-999,-99.99,,,0.81,,2013-07-03 01:00:00,
2013-07-02 19:00:00,65.0,-99.9,-100.00,North,-999,-999.0,-999.0,-999,-99.99,,,0.81,,2013-07-03 02:00:00,
2013-07-02 20:00:00,61.0,-99.9,-100.00,North,-999,-999.0,-999.0,-999,-99.99,,,0.80,,2013-07-03 03:00:00,
2013-07-02 21:00:00,58.0,-99.9,-100.00,North,-999,-999.0,-999.0,-999,-99.99,,,0.81,,2013-07-03 04:00:00,
2013-07-02 21:53:00,58.0,-99.9,-100.00,North,-999,-999.0,-999.0,-999,-99.99,,,0.81,,2013-07-03 04:53:00,
2013-07-02 22:00:00,59.0,-99.9,-100.00,North,-999,-999.0,-999.0,-999,-99.99,,,0.81,,2013-07-03 05:00:00,
2013-07-02 23:00:00,57.0,-99.9,-100.00,North,-999,-999.0,-999.0,-999,-99.99,,,0.81,,2013-07-03 06:00:00,